Location: Makanda
(37.6176°N, 89.2090°W)
Time: 03:34:25
(UTC+00:00)

FREGAT/IRIS - Pass Details

Date: 23 September 2019
Orbit: 347 x 350 km, 97.0° (Epoch: 20 October)

Event Time Altitude Azimuth Distance (km) Brightness Sun altitude
Exits shadow 01:04:58 37° 91° (E) 564 2.9 -14.8°
Maximum altitude 01:05:14 39° 76° (ENE) 552 2.9 -14.8°
Drops below altitude 10° 01:07:54 10° 5° (N) 1,331 5.4 -15.3°
Sets 01:09:54 0° 357° (N) 2,181 6.6 -15.7°
